Find Starlink 34676

NORAD ID: 64853 Int'l Des: 2025-152 Owner: SPXS Country: US Constellation: starlink operational
LEOCIRCULARRETROGRADESSO

当前视图

正在加载3D地球...

About Starlink 34676

Starlink 34676 (NORAD 64853) is a starlink constellation satellite (v2 mini) launched Jul 19, 2025 by SPXS of US. It operates in LEO, CIRCULAR, RETROGRADE, SSO orbit with a mass of 575.00 kg.

关于 Starlink 34676

正在加载描述...

即将过境

Passes for default location (London). Set your location on the main map for personalized predictions.

高度历史

Loading altitude history...

两行轨道根数

1 64853U 25152M 26195.55328486 .00003209 00000-0 22619-3 0 9992
2 64853 97.2834 48.4467 0001838 78.4252 281.7182 15.05651944 54505
Epoch: Jul 14, 2026 • Age: 11 hours

当前状态

高度 563.4 km
远地点 / 近地点 N/A
速度 7.58 km/s
星下点 -34.23°S, 65.92°W
发射日期 Jul 19, 2025
运行时间 0.9 years
类型 internet

技术详情

分类 Payload
质量 575.00 kg
干质量 530.00 kg
总质量 575.00 kg
长度 0.30 m
直径 4.10 m
跨度 29.00 m
形状 Box + pan
制造商 SPXS
平台类型 Starlink V2MO
阶段状态 In Orbit
所有者/国家 SPXS/US

Most Searched